GW1946 Weather Reports


time (UTC)temp
F
wind
direction
speed
knots
gust
knots
rain 1hr
in
rain 24hr
in
rain mn
in
humidity
%
barometer
mb
20260504081556 52 185 1.7 4.3 0.00 0.00 0.00 53 997.3
20260504081050 52 167 1.7 6.1 0.00 0.00 0.00 54 997.4
20260504080550 52 149 1.7 6.1 0.00 0.00 0.00 53 997.5
20260504050550 44 0 0.0 0.0 0.00 0.00 0.00 80 1000.5
20260504045549 44 0 0.0 0.0 0.00 0.00 0.00 79 1000.7
20260504045051 45 0 0.0 0.0 0.00 0.00 0.00 78 1000.8
20260504044552 45 0 0.0 0.0 0.00 0.00 0.00 78 1000.9
20260504044050 45 0 0.0 0.0 0.00 0.00 0.00 78 1001.0
20260504043550 45 0 0.0 0.0 0.00 0.00 0.00 77 1001.0
20260504043053 45 0 0.0 0.0 0.00 0.00 0.00 77 1001.1
20260504042549 46 0 0.0 0.0 0.00 0.00 0.00 76 1001.1
20260504042050 46 0 0.0 0.0 0.00 0.00 0.00 76 1001.2
20260504041555 46 0 0.0 0.0 0.00 0.00 0.00 75 1001.2
20260504041049 47 0 0.0 0.0 0.00 0.00 0.00 74 1001.3
20260504040551 47 0 0.0 0.0 0.00 0.00 0.00 74 1001.4
20260504040053 47 0 0.0 0.0 0.00 0.00 0.00 73 1001.6
20260504035550 47 0 0.0 0.0 0.00 0.00 0.00 73 1001.7
20260504035050 47 0 0.0 0.0 0.00 0.00 0.00 72 1001.8
20260504034553 48 0 0.0 0.0 0.00 0.00 0.00 71 1001.9
20260504034054 48 0 0.0 0.9 0.00 0.00 0.00 70 1001.9
20260504033550 48 0 0.0 0.9 0.00 0.00 0.00 70 1002.1
20260504033054 48 0 0.0 0.9 0.00 0.00 0.00 69 1002.1
20260504032550 48 0 0.0 0.0 0.00 0.00 0.00 69 1002.3
20260504032050 48 0 0.0 0.0 0.00 0.00 0.00 69 1002.3
20260504031550 49 0 0.0 0.0 0.00 0.00 0.00 67 1002.4
20260504031049 49 0 0.0 0.0 0.00 0.00 0.00 67 1002.4
20260504030550 49 0 0.0 0.0 0.00 0.00 0.00 66 1002.4
20260504030053 49 0 0.0 0.0 0.00 0.00 0.00 66 1002.4
20260504025551 50 0 0.0 0.0 0.00 0.00 0.00 66 1002.5
20260504025051 50 0 0.0 0.0 0.00 0.00 0.00 65 1002.4
20260504024609 50 0 0.0 0.0 0.00 0.00 0.00 64 1002.4
20260504024049 51 0 0.0 0.9 0.00 0.00 0.00 64 1002.4
20260504023550 51 0 0.0 0.9 0.00 0.00 0.00 65 1002.4
20260504023054 52 0 0.0 0.9 0.00 0.00 0.00 62 1002.5
20260504022550 52 0 0.0 0.9 0.00 0.00 0.00 61 1002.5
20260504022052 53 0 0.0 0.9 0.00 0.00 0.00 62 1002.7
20260504021554 53 0 0.0 0.9 0.00 0.00 0.00 58 1002.7
20260504021050 54 0 0.0 0.9 0.00 0.00 0.00 58 1002.6
20260504020551 54 0 0.0 0.9 0.00 0.00 0.00 55 1002.6
20260504020051 55 0 0.0 0.0 0.00 0.00 0.00 55 1002.6
20260504015550 55 0 0.0 0.0 0.00 0.00 0.00 52 1002.8
20260504015050 56 0 0.0 0.0 0.00 0.00 0.00 52 1002.7
20260504014606 57 0 0.0 0.0 0.00 0.00 0.00 50 1002.7
20260504014049 58 0 0.0 0.0 0.00 0.00 0.00 49 1002.7
20260504013549 59 0 0.0 0.0 0.00 0.00 0.00 49 1002.8
20260504013101 60 0 0.0 0.0 0.00 0.00 0.00 46 1002.7
20260504012553 61 0 0.0 0.0 0.00 0.00 0.00 40 1002.7
20260504012051 62 0 0.0 0.9 0.00 0.00 0.00 36 1002.8
20260504011559 63 0 0.0 0.9 0.00 0.00 0.00 34 1002.8
20260504011050 64 0 0.0 0.0 0.00 0.00 0.00 32 1002.8
20260504010550 64 0 0.0 0.9 0.00 0.00 0.00 34 1002.8
20260504010105 65 0 0.0 1.7 0.00 0.00 0.00 31 1002.8
20260504005550 66 0 0.0 4.3 0.00 0.00 0.00 31 1002.7
20260504005050 66 324 0.9 4.3 0.00 0.00 0.00 30 1002.7
20260504004600 67 0 1.7 5.2 0.00 0.00 0.00 28 1002.7
20260504004050 67 287 1.7 7.8 0.00 0.00 0.00 28 1002.8
20260504003551 67 302 3.5 7.8 0.00 0.00 0.00 29 1002.9
20260504003059 67 287 1.7 6.1 0.00 0.00 0.00 28 1002.9
20260504002550 68 277 2.6 7.0 0.00 0.00 0.00 28 1002.9
20260504002050 68 0 3.5 7.8 0.00 0.00 0.00 30 1002.9
20260504001554 69 300 2.6 7.8 0.00 0.00 0.00 28 1003.0
20260504001050 69 260 3.5 10.4 0.00 0.00 0.00 28 1002.9
20260504000550 69 283 5.2 10.4 0.00 0.00 0.00 28 1002.9
20260504000128 69 336 3.5 10.4 0.00 0.00 0.00 27 1003.0
20260503235550 69 327 2.6 10.4 0.00 0.00 0.00 28 1003.0
20260503235049 70 313 4.3 10.4 0.00 0.00 0.00 27 1003.1
20260503234601 70 296 2.6 10.4 0.00 0.00 0.00 27 1003.0
20260503234052 70 327 3.5 10.4 0.00 0.00 0.00 28 1003.0
20260503233550 70 296 4.3 9.6 0.00 0.00 0.00 28 1003.0
20260503233049 70 302 3.5 8.7 0.00 0.00 0.00 27 1003.1
20260503232551 70 292 3.5 8.7 0.00 0.00 0.00 27 1003.1
20260503232050 69 287 4.3 9.6 0.00 0.00 0.00 28 1003.2
20260503231553 69 316 3.5 11.3 0.00 0.00 0.00 30 1003.2
20260503231050 70 317 6.1 11.3 0.00 0.00 0.00 27 1003.2
20260503230549 70 322 2.6 8.7 0.00 0.00 0.00 29 1003.3
20260503230050 69 296 4.3 10.4 0.00 0.00 0.00 29 1003.2
20260503225549 70 352 3.5 12.2 0.00 0.00 0.00 29 1003.2
20260503225049 70 292 7.0 12.2 0.00 0.00 0.00 28 1003.3
20260503224553 70 304 6.1 11.3 0.00 0.00 0.00 29 1003.3
20260503224053 70 300 6.1 10.4 0.00 0.00 0.00 29 1003.4
20260503223551 70 318 6.1 10.4 0.00 0.00 0.00 29 1003.4
20260503223052 70 345 5.2 12.2 0.00 0.00 0.00 30 1003.4
20260503222551 70 12 5.2 13.9 0.00 0.00 0.00 31 1003.4
20260503222051 70 347 4.3 13.9 0.00 0.00 0.00 27 1003.3
20260503221558 70 294 5.2 11.3 0.00 0.00 0.00 28 1003.4
20260503221050 70 295 4.3 12.2 0.00 0.00 0.00 27 1003.3
20260503220550 71 295 4.3 12.2 0.00 0.00 0.00 30 1003.3
20260503220056 71 313 6.1 12.2 0.00 0.00 0.00 28 1003.2
20260503215549 71 347 2.6 13.0 0.00 0.00 0.00 31 1003.2
20260503215050 71 331 7.8 13.0 0.00 0.00 0.00 30 1003.3
20260503214552 71 290 5.2 10.4 0.00 0.00 0.00 28 1003.2
20260503214051 70 333 3.5 13.9 0.00 0.00 0.00 29 1003.4
20260503213550 70 296 5.2 13.9 0.00 0.00 0.00 30 1003.4
20260503213051 70 315 6.1 12.2 0.00 0.00 0.00 33 1003.3
20260503212550 70 332 6.1 11.3 0.00 0.00 0.00 29 1003.2
20260503212050 70 327 5.2 13.0 0.00 0.00 0.00 30 1003.2
20260503211613 70 330 7.8 13.0 0.00 0.00 0.00 30 1003.4
20260503211050 70 303 5.2 12.2 0.00 0.00 0.00 34 1003.3
20260503210549 70 315 4.3 11.3 0.00 0.00 0.00 30 1003.5
20260503210050 70 292 4.3 15.6 0.00 0.00 0.00 31 1003.6
20260503205550 70 347 7.8 15.6 0.00 0.00 0.00 31 1003.6
20260503205050 70 325 6.1 14.8 0.00 0.00 0.00 30 1003.6
20260503204552 70 302 5.2 14.8 0.00 0.00 0.00 31 1003.7
20260503204051 70 315 7.8 14.8 0.00 0.00 0.00 30 1003.7
20260503203551 70 286 6.1 14.8 0.00 0.00 0.00 32 1003.8
20260503203105 69 360 8.7 14.8 0.00 0.00 0.00 29 1003.9
20260503202553 70 360 7.0 12.2 0.00 0.00 0.00 29 1003.9
20260503202054 69 302 5.2 12.2 0.00 0.00 0.00 32 1004.0
20260503201556 70 328 6.1 12.2 0.00 0.00 0.00 29 1004.0
20260503201049 69 294 7.0 15.6 0.00 0.00 0.00 29 1004.1
20260503200554 69 303 7.0 16.5 0.00 0.00 0.00 30 1004.2
20260503200053 69 300 9.6 16.5 0.00 0.00 0.00 33 1004.3
20260503195550 69 321 7.0 16.5 0.00 0.00 0.00 33 1004.2
20260503195049 69 333 7.8 15.6 0.00 0.00 0.00 35 1004.4
20260503194556 69 277 5.2 13.0 0.00 0.00 0.00 35 1004.3
20260503194055 69 302 5.2 15.6 0.00 0.00 0.00 36 1004.3
20260503193551 69 345 7.0 15.6 0.00 0.00 0.00 35 1004.4
20260503193052 69 306 7.0 13.9 0.00 0.00 0.00 35 1004.3
20260503192551 69 342 7.0 13.9 0.00 0.00 0.00 36 1004.3
20260503192050 69 352 6.1 16.5 0.00 0.00 0.00 37 1004.3
20260503191559 69 274 6.1 16.5 0.00 0.00 0.00 36 1004.4
20260503191053 69 20 7.8 12.2 0.00 0.00 0.00 33 1004.2
20260503190550 69 319 7.8 17.4 0.00 0.00 0.00 35 1004.3
20260503190053 68 318 6.1 17.4 0.00 0.00 0.00 35 1004.4
20260503185550 68 318 9.6 17.4 0.00 0.00 0.00 34 1004.4
20260503185050 68 13 7.0 16.5 0.00 0.00 0.00 36 1004.4
20260503184551 68 336 8.7 16.5 0.00 0.00 0.00 34 1004.5
20260503184053 68 300 7.0 14.8 0.00 0.00 0.00 36 1004.3
20260503183549 68 301 7.0 13.9 0.00 0.00 0.00 36 1004.4
20260503183053 68 360 6.1 13.9 0.00 0.00 0.00 38 1004.4
20260503182549 68 5 8.7 14.8 0.00 0.00 0.00 40 1004.6
20260503182051 68 311 6.1 14.8 0.00 0.00 0.00 39 1004.4
20260503181602 68 313 7.0 14.8 0.00 0.00 0.00 39 1004.6
20260503181051 67 360 6.1 14.8 0.00 0.00 0.00 36 1004.6
20260503180550 67 342 7.8 14.8 0.00 0.00 0.00 40 1004.7
20260503175551 67 341 8.7 14.8 0.00 0.00 0.00 38 1004.7
20260503175050 67 300 6.1 13.0 0.00 0.00 0.00 39 1004.7
20260503174610 67 294 7.0 13.0 0.00 0.00 0.00 40 1004.7
20260503174053 67 329 5.2 15.6 0.00 0.00 0.00 39 1004.7
20260503173550 67 347 7.8 15.6 0.00 0.00 0.00 41 1004.8
20260503173110 67 302 8.7 13.0 0.00 0.00 0.00 37 1004.8
20260503172549 67 335 8.7 13.0 0.00 0.00 0.00 40 1004.8
20260503172051 67 352 6.1 11.3 0.00 0.00 0.00 40 1004.8
20260503171603 67 329 7.0 16.5 0.00 0.00 0.00 42 1004.8
20260503171050 67 298 7.0 16.5 0.00 0.00 0.00 39 1004.8
20260503170550 67 331 7.0 16.5 0.00 0.00 0.00 42 1004.8
20260503170107 67 285 5.2 13.0 0.00 0.00 0.00 41 1004.7
20260503150550 61 315 6.1 12.2 0.00 0.00 0.00 52 1004.1
20260503131053 55 286 3.5 10.4 0.00 0.00 0.00 53 1003.5
20260503130550 55 300 4.3 10.4 0.00 0.00 0.00 54 1003.6
20260503110551 52 186 1.7 7.8 0.00 0.00 0.00 52 1002.5